Project,Study,Ord_Occ,Event_Num,Date_Time_UTC,Date_Time_PST,Lat_Dec,Lon_Dec,Sta_ID,Line,Sta,Depth,Pressure,Temp0,Temp1,Salt0,CorrSalt0,Salt1,CorrSalt1,O2ml/L,AveCorrO2ml/L,StaCorrO2ml/L,FluorV,AveEstChl,StaEstChl,ISUSV,AveEstNO3,StaEstNO3,SigThetaTS0,SigThetaTS1,BAT,XMiss,SPAR,PAR,BTL_Depth,BTL_Temp,BTL_Salt,BTL_O2ml/L,BTL_Chl,BTL_Pha,BTL_NO3
CalCOFI,0701JD,074,728,30-Jan-2007 7:03:19 AM,29-Jan-2007 11:03:19 PM,33.38366,-124.32218,076.7 100.0,076.7,100.0,510.000,514.276,5.1400,5.1413,34.1146,34.1133,34.1102,34.1103,0.73358,0.86,0.86,0.0239,,,1.8021,42.41,40.327,26.9619,26.9583,0.3952,90.5942,3.3500e+00,9.9990e+03,511,5.14 ,34.112,  .80,,,41.3
CalCOFI,0701JD,074,728,30-Jan-2007 7:03:21 AM,29-Jan-2007 11:03:21 PM,33.38366,-124.32218,076.7 100.0,076.7,100.0,509.000,513.267,5.1445,5.1486,34.1140,34.1127,34.1093,34.1094,0.73642,0.86,0.86,0.0246,,,1.8028,42.43,40.348,26.9609,26.9567,0.3953,90.5912,4.2017e+00,9.9990e+03,,,,,,,
CalCOFI,0701JD,074,728,30-Jan-2007 7:03:22 AM,29-Jan-2007 11:03:22 PM,33.38366,-124.32218,076.7 100.0,076.7,100.0,508.000,512.257,5.1626,5.1661,34.1132,34.1119,34.1082,34.1083,0.73883,0.87,0.86,0.0247,,,1.8079,42.58,40.502,26.9582,26.9538,0.3950,90.5971,3.4256e+00,9.9990e+03,,,,,,,
CalCOFI,0701JD,074,728,30-Jan-2007 7:03:23 AM,29-Jan-2007 11:03:23 PM,33.38366,-124.32218,076.7 100.0,076.7,100.0,507.000,511.248,5.1745,5.1758,34.1120,34.1107,34.1077,34.1078,0.74154,0.87,0.87,0.0243,,,1.8288,43.19,41.134,26.9558,26.9523,0.3957,90.5807,4.2164e+00,9.9990e+03,,,,,,,
CalCOFI,0701JD,074,728,30-Jan-2007 7:03:24 AM,29-Jan-2007 11:03:24 PM,33.38366,-124.32218,076.7 100.0,076.7,100.0,506.000,510.238,5.1830,5.1839,34.1117,34.1104,34.1074,34.1075,0.74569,0.87,0.87,0.0241,,,1.8284,43.18,41.122,26.9546,26.9510,0.3949,90.6000,4.1591e+00,9.9990e+03,,,,,,,
CalCOFI,0701JD,074,728,30-Jan-2007 7:03:25 AM,29-Jan-2007 11:03:25 PM,33.38366,-124.32218,076.7 100.0,076.7,100.0,505.000,509.228,5.1949,5.1984,34.1104,34.1091,34.1056,34.1057,0.74941,0.88,0.88,-9.990e-29,,,1.8242,43.06,40.995,26.9522,26.9480,0.3951,90.5942,3.0702e+00,9.9990e+03,,,,,,,
CalCOFI,0701JD,074,728,30-Jan-2007 7:03:25 AM,29-Jan-2007 11:03:25 PM,33.38366,-124.32218,076.7 100.0,076.7,100.0,504.000,508.219,5.2045,5.2061,34.1096,34.1083,34.1052,34.1053,0.75232,0.88,0.88,-9.990e-29,,,1.8247,43.07,41.010,26.9504,26.9468,0.3955,90.5873,3.6342e+00,9.9990e+03,,,,,,,
CalCOFI,0701JD,074,728,30-Jan-2007 7:03:26 AM,29-Jan-2007 11:03:26 PM,33.38366,-124.32218,076.7 100.0,076.7,100.0,503.000,507.209,5.2114,5.2137,34.1091,34.1078,34.1048,34.1049,0.75692,0.89,0.89,-9.990e-29,,,1.8285,43.18,41.125,26.9493,26.9456,0.3951,90.5961,3.8409e+00,9.9990e+03,,,,,,,
CalCOFI,0701JD,074,728,30-Jan-2007 7:03:27 AM,29-Jan-2007 11:03:27 PM,33.38366,-124.32218,076.7 100.0,076.7,100.0,502.000,506.200,5.2163,5.2179,34.1089,34.1076,34.1046,34.1047,0.76020,0.89,0.89,-9.990e-29,,,1.8317,43.28,41.222,26.9485,26.9449,0.3955,90.5854,3.4953e+00,9.9990e+03,,,,,,,
CalCOFI,0701JD,074,728,30-Jan-2007 7:03:28 AM,29-Jan-2007 11:03:28 PM,33.38366,-124.32218,076.7 100.0,076.7,100.0,501.000,505.190,5.2231,5.2250,34.1081,34.1068,34.1039,34.1040,0.76360,0.90,0.89,0.0239,,,1.7988,42.31,40.227,26.9471,26.9435,0.3952,90.5932,3.6703e+00,9.9990e+03,,,,,,,
CalCOFI,0701JD,074,728,30-Jan-2007 7:03:29 AM,29-Jan-2007 11:03:29 PM,33.38366,-124.32218,076.7 100.0,076.7,100.0,500.000,504.180,5.2255,5.2266,34.1077,34.1064,34.1036,34.1037,0.76801,0.90,0.90,0.0244,,,1.7949,42.20,40.109,26.9465,26.9431,0.3955,90.5866,3.4982e+00,9.9990e+03,,,,,,,
CalCOFI,0701JD,074,728,30-Jan-2007 7:03:30 AM,29-Jan-2007 11:03:30 PM,33.38366,-124.32218,076.7 100.0,076.7,100.0,499.000,503.171,5.2321,5.2332,34.1071,34.1058,34.1028,34.1029,0.77322,0.91,0.91,0.0245,,,1.7886,42.01,39.919,26.9452,26.9417,0.3953,90.5912,3.9416e+00,9.9990e+03,,,,,,,
CalCOFI,0701JD,074,728,30-Jan-2007 7:03:32 AM,29-Jan-2007 11:03:32 PM,33.38366,-124.32218,076.7 100.0,076.7,100.0,498.000,502.161,5.2420,5.2447,34.1061,34.1048,34.1017,34.1018,0.77962,0.92,0.91,0.0239,,,1.7657,41.34,39.227,26.9432,26.9395,0.3952,90.5935,3.5561e+00,9.9990e+03,,,,,,,
CalCOFI,0701JD,074,728,30-Jan-2007 7:03:33 AM,29-Jan-2007 11:03:33 PM,33.38366,-124.32218,076.7 100.0,076.7,100.0,497.000,501.152,5.2538,5.2577,34.1045,34.1032,34.0998,34.0999,0.78505,0.92,0.92,0.0244,,,1.8065,42.54,40.460,26.9406,26.9365,0.3952,90.5929,4.4716e+00,9.9990e+03,,,,,,,
CalCOFI,0701JD,074,728,30-Jan-2007 7:03:34 AM,29-Jan-2007 11:03:34 PM,33.38366,-124.32218,076.7 100.0,076.7,100.0,496.000,500.142,5.2659,5.2673,34.1029,34.1016,34.0987,34.0988,0.78977,0.93,0.93,0.0242,,,1.8172,42.85,40.783,26.9379,26.9344,0.3951,90.5955,3.0768e+00,9.9990e+03,,,,,,,
CalCOFI,0701JD,074,728,30-Jan-2007 7:03:35 AM,29-Jan-2007 11:03:35 PM,33.38366,-124.32218,076.7 100.0,076.7,100.0,495.000,499.133,5.2669,5.2679,34.1022,34.1009,34.0984,34.0985,0.79463,0.93,0.93,0.0241,,,1.7987,42.31,40.224,26.9373,26.9341,0.3950,90.5974,4.0175e+00,9.9990e+03,,,,,,,
CalCOFI,0701JD,074,728,30-Jan-2007 7:03:36 AM,29-Jan-2007 11:03:36 PM,33.38366,-124.32218,076.7 100.0,076.7,100.0,494.000,498.123,5.2685,5.2701,34.1023,34.1010,34.0981,34.0982,0.80034,0.94,0.94,0.0242,,,1.7986,42.31,40.221,26.9371,26.9336,0.3956,90.5838,3.8400e+00,9.9990e+03,,,,,,,
CalCOFI,0701JD,074,728,30-Jan-2007 7:03:37 AM,29-Jan-2007 11:03:37 PM,33.38366,-124.32218,076.7 100.0,076.7,100.0,493.000,497.113,5.2917,5.2952,34.1023,34.1010,34.0969,34.0970,0.80547,0.95,0.95,0.0243,,,1.7973,42.27,40.182,26.9344,26.9297,0.3950,90.5970,3.4147e+00,9.9990e+03,,,,,,,
CalCOFI,0701JD,074,728,30-Jan-2007 7:03:37 AM,29-Jan-2007 11:03:37 PM,33.38366,-124.32218,076.7 100.0,076.7,100.0,492.000,496.104,5.3108,5.3134,34.1002,34.0989,34.0964,34.0965,0.80908,0.95,0.95,0.0246,,,1.7950,42.20,40.113,26.9305,26.9271,0.3951,90.5952,3.7227e+00,9.9990e+03,,,,,,,
CalCOFI,0701JD,074,728,30-Jan-2007 7:03:38 AM,29-Jan-2007 11:03:38 PM,33.38366,-124.32218,076.7 100.0,076.7,100.0,491.000,495.094,5.3200,5.3218,34.1011,34.0998,34.0968,34.0969,0.81271,0.96,0.95,0.0241,,,1.7907,42.07,39.983,26.9301,26.9265,0.3954,90.5884,3.6171e+00,9.9990e+03,,,,,,,
CalCOFI,0701JD,074,728,30-Jan-2007 7:03:39 AM,29-Jan-2007 11:03:39 PM,33.38366,-124.32218,076.7 100.0,076.7,100.0,490.000,494.085,5.3300,5.3320,34.1006,34.0993,34.0969,34.0970,0.81584,0.96,0.96,0.0237,,,1.7831,41.85,39.753,26.9286,26.9254,0.3949,90.5995,3.7355e+00,9.9990e+03,,,,,,,
CalCOFI,0701JD,074,728,30-Jan-2007 7:03:40 AM,29-Jan-2007 11:03:40 PM,33.38366,-124.32218,076.7 100.0,076.7,100.0,489.000,493.075,5.3335,5.3346,34.1007,34.0994,34.0969,34.0970,0.82073,0.97,0.96,0.0240,,,1.7733,41.56,39.457,26.9282,26.9251,0.3951,90.5949,4.1680e+00,9.9990e+03,,,,,,,
CalCOFI,0701JD,074,728,30-Jan-2007 7:03:41 AM,29-Jan-2007 11:03:41 PM,33.38366,-124.32218,076.7 100.0,076.7,100.0,488.000,492.066,5.3358,5.3367,34.1000,34.0987,34.0962,34.0963,0.82696,0.97,0.97,0.0240,,,1.7987,42.31,40.224,26.9274,26.9243,-9.990e-29,-9.990e-29,3.9835e+00,9.9990e+03,,,,,,,
CalCOFI,0701JD,074,728,30-Jan-2007 7:03:42 AM,29-Jan-2007 11:03:42 PM,33.38366,-124.32218,076.7 100.0,076.7,100.0,487.000,491.056,5.3427,5.3437,34.0960,34.0947,34.0922,34.0923,0.83381,0.98,0.98,0.0245,,,1.7959,42.23,40.140,26.9233,26.9202,-9.990e-29,-9.990e-29,3.4236e+00,9.9990e+03,,,,,,,
CalCOFI,0701JD,074,728,30-Jan-2007 7:03:44 AM,29-Jan-2007 11:03:44 PM,33.38366,-124.32218,076.7 100.0,076.7,100.0,486.000,490.047,5.3413,5.3419,34.0950,34.0937,34.0903,34.0904,0.84302,0.99,0.99,0.0244,,,1.7927,42.13,40.043,26.9227,26.9189,0.3952,90.5936,3.6777e+00,9.9990e+03,,,,,,,
CalCOFI,0701JD,074,728,30-Jan-2007 7:03:45 AM,29-Jan-2007 11:03:45 PM,33.38366,-124.32218,076.7 100.0,076.7,100.0,485.000,489.037,5.3417,5.3433,34.0920,34.0907,34.0880,34.0881,0.85052,1.00,1.00,-9.990e-29,,,1.7666,41.37,39.254,26.9203,26.9170,0.3951,90.5963,3.9811e+00,9.9990e+03,,,,,,,
CalCOFI,0701JD,074,728,30-Jan-2007 7:03:46 AM,29-Jan-2007 11:03:46 PM,33.38366,-124.32218,076.7 100.0,076.7,100.0,484.000,488.028,5.3461,5.3470,34.0894,34.0881,34.0856,34.0857,0.85749,1.01,1.01,-9.990e-29,,,1.8015,42.39,40.309,26.9178,26.9146,0.3953,90.5912,3.5370e+00,9.9990e+03,,,,,,,
CalCOFI,0701JD,074,728,30-Jan-2007 7:03:47 AM,29-Jan-2007 11:03:47 PM,33.38366,-124.32218,076.7 100.0,076.7,100.0,483.000,487.018,5.3502,5.3511,34.0882,34.0869,34.0845,34.0846,0.86317,1.02,1.02,-9.990e-29,,,1.7709,41.49,39.384,26.9163,26.9132,0.3951,90.5963,3.1057e+00,9.9990e+03,,,,,,,
CalCOFI,0701JD,074,728,30-Jan-2007 7:03:48 AM,29-Jan-2007 11:03:48 PM,33.38366,-124.32218,076.7 100.0,076.7,100.0,482.000,486.009,5.3542,5.3552,34.0872,34.0859,34.0836,34.0837,0.86721,1.02,1.02,0.0247,,,1.7656,41.34,39.224,26.9150,26.9121,0.3949,90.5998,4.0694e+00,9.9990e+03,,,,,,,
CalCOFI,0701JD,074,728,30-Jan-2007 7:03:48 AM,29-Jan-2007 11:03:48 PM,33.38366,-124.32218,076.7 100.0,076.7,100.0,481.000,484.999,5.3552,5.3560,34.0865,34.0852,34.0831,34.0832,0.87043,1.03,1.03,0.0245,,,1.7657,41.34,39.227,26.9143,26.9115,0.3954,90.5889,3.8375e+00,9.9990e+03,,,,,,,
CalCOFI,0701JD,074,728,30-Jan-2007 7:03:49 AM,29-Jan-2007 11:03:49 PM,33.38366,-124.32218,076.7 100.0,076.7,100.0,480.000,483.990,5.3571,5.3585,34.0865,34.0852,34.0828,34.0829,0.87378,1.03,1.03,0.0242,,,1.7783,41.71,39.608,26.9141,26.9110,0.3955,90.5859,3.3541e+00,9.9990e+03,,,,,,,
CalCOFI,0701JD,074,728,30-Jan-2007 7:03:50 AM,29-Jan-2007 11:03:50 PM,33.38366,-124.32218,076.7 100.0,076.7,100.0,479.000,482.980,5.3617,5.3630,34.0858,34.0845,34.0820,34.0821,0.87990,1.04,1.04,0.0238,,,1.7838,41.87,39.774,26.9130,26.9099,0.3949,90.5998,4.1583e+00,9.9990e+03,,,,,,,
CalCOFI,0701JD,074,728,30-Jan-2007 7:03:51 AM,29-Jan-2007 11:03:51 PM,33.38366,-124.32218,076.7 100.0,076.7,100.0,478.000,481.971,5.3676,5.3690,34.0847,34.0834,34.0808,34.0809,0.88537,1.05,1.04,0.0239,,,1.7947,42.19,40.103,26.9114,26.9082,0.3951,90.5963,3.4868e+00,9.9990e+03,,,,,,,
CalCOFI,0701JD,074,728,30-Jan-2007 7:03:52 AM,29-Jan-2007 11:03:52 PM,33.38366,-124.32218,076.7 100.0,076.7,100.0,477.000,480.961,5.3831,5.3856,34.0840,34.0827,34.0796,34.0797,0.89140,1.05,1.05,0.0242,,,1.7899,42.05,39.958,26.9090,26.9053,0.3951,90.5963,3.6828e+00,9.9990e+03,,,,,,,
CalCOFI,0701JD,074,728,30-Jan-2007 7:03:53 AM,29-Jan-2007 11:03:53 PM,33.38366,-124.32218,076.7 100.0,076.7,100.0,476.000,479.952,5.3994,5.4005,34.0824,34.0811,34.0787,34.0788,0.89926,1.06,1.06,0.0248,,,1.8364,43.42,41.364,26.9058,26.9028,-9.990e-29,-9.990e-29,3.6920e+00,9.9990e+03,,,,,,,
CalCOFI,0701JD,074,728,30-Jan-2007 7:03:54 AM,29-Jan-2007 11:03:54 PM,33.38366,-124.32218,076.7 100.0,076.7,100.0,475.000,478.942,5.4019,5.4028,34.0818,34.0805,34.0783,34.0784,0.90654,1.07,1.07,0.0240,,,1.7755,41.63,39.523,26.9051,26.9022,-9.990e-29,-9.990e-29,3.6090e+00,9.9990e+03,,,,,,,
CalCOFI,0701JD,074,728,30-Jan-2007 7:03:55 AM,29-Jan-2007 11:03:55 PM,33.38366,-124.32218,076.7 100.0,076.7,100.0,474.000,477.933,5.4076,5.4084,34.0801,34.0788,34.0764,34.0765,0.91331,1.08,1.08,0.0242,,,1.7996,42.34,40.252,26.9030,26.9000,-9.990e-29,-9.990e-29,3.4739e+00,9.9990e+03,,,,,,,
CalCOFI,0701JD,074,728,30-Jan-2007 7:03:56 AM,29-Jan-2007 11:03:56 PM,33.38366,-124.32218,076.7 100.0,076.7,100.0,473.000,476.923,5.4213,5.4228,34.0799,34.0786,34.0762,34.0763,0.92438,1.09,1.09,0.0239,,,1.7875,41.98,39.886,26.9012,26.8981,0.3950,90.5971,3.7946e+00,9.9990e+03,,,,,,,
CalCOFI,0701JD,074,728,30-Jan-2007 7:03:58 AM,29-Jan-2007 11:03:58 PM,33.38366,-124.32218,076.7 100.0,076.7,100.0,472.000,475.914,5.4359,5.4393,34.0776,34.0763,34.0735,34.0736,0.93495,1.11,1.10,0.0242,,,1.7929,42.14,40.049,26.8976,26.8940,0.3953,90.5900,3.5626e+00,9.9990e+03,,,,,,,
CalCOFI,0701JD,074,728,30-Jan-2007 7:03:59 AM,29-Jan-2007 11:03:59 PM,33.38366,-124.32218,076.7 100.0,076.7,100.0,471.000,474.904,5.4498,5.4505,34.0757,34.0744,34.0721,34.0722,0.94499,1.12,1.12,0.0243,,,1.7916,42.10,40.010,26.8945,26.8916,0.3949,90.5987,3.8357e+00,9.9990e+03,,,,,,,
CalCOFI,0701JD,074,728,30-Jan-2007 7:04:00 AM,29-Jan-2007 11:04:00 PM,33.38366,-124.32218,076.7 100.0,076.7,100.0,470.000,473.895,5.4556,5.4564,34.0745,34.0732,34.0711,34.0712,0.95472,1.13,1.13,0.0240,,,1.7867,41.96,39.862,26.8928,26.8900,0.3954,90.5875,3.7633e+00,9.9990e+03,,,,,,,
CalCOFI,0701JD,074,728,30-Jan-2007 7:04:01 AM,29-Jan-2007 11:04:01 PM,33.38366,-124.32218,076.7 100.0,076.7,100.0,469.000,472.886,5.4581,5.4590,34.0726,34.0713,34.0695,34.0696,0.96621,1.14,1.14,0.0245,,,1.7861,41.94,39.844,26.8910,26.8884,-9.990e-29,-9.990e-29,3.6571e+00,9.9990e+03,,,,,,,
CalCOFI,0701JD,074,728,30-Jan-2007 7:04:02 AM,29-Jan-2007 11:04:02 PM,33.38366,-124.32218,076.7 100.0,076.7,100.0,468.000,471.876,5.4581,5.4594,34.0689,34.0676,34.0654,34.0655,0.97933,1.16,1.16,0.0245,,,1.7685,41.42,39.312,26.8881,26.8852,-9.990e-29,-9.990e-29,3.7273e+00,9.9990e+03,,,,,,,
CalCOFI,0701JD,074,728,30-Jan-2007 7:04:02 AM,29-Jan-2007 11:04:02 PM,33.38366,-124.32218,076.7 100.0,076.7,100.0,467.000,470.867,5.4649,5.4660,34.0673,34.0660,34.0639,34.0640,0.99306,1.18,1.18,0.0243,,,1.7738,41.58,39.472,26.8860,26.8832,-9.990e-29,-9.990e-29,4.0663e+00,9.9990e+03,,,,,,,
CalCOFI,0701JD,074,728,30-Jan-2007 7:04:03 AM,29-Jan-2007 11:04:03 PM,33.38366,-124.32218,076.7 100.0,076.7,100.0,466.000,469.857,5.4817,5.4845,34.0641,34.0628,34.0591,34.0592,1.00547,1.19,1.19,0.0242,,,1.7801,41.76,39.662,26.8815,26.8771,-9.990e-29,-9.990e-29,3.1368e+00,9.9990e+03,,,,,,,
CalCOFI,0701JD,074,728,30-Jan-2007 7:04:04 AM,29-Jan-2007 11:04:04 PM,33.38365,-124.32218,076.7 100.0,076.7,100.0,465.000,468.848,5.4960,5.4968,34.0591,34.0578,34.0559,34.0560,1.01656,1.21,1.21,0.0240,,,1.7661,41.35,39.239,26.8758,26.8731,-9.990e-29,-9.990e-29,3.9347e+00,9.9990e+03,,,,,,,
CalCOFI,0701JD,074,728,30-Jan-2007 7:04:04 AM,29-Jan-2007 11:04:04 PM,33.38350,-124.32218,076.7 100.0,076.7,100.0,464.000,467.839,5.4954,5.4964,34.0576,34.0563,34.0543,34.0544,1.02808,1.22,1.22,0.0242,,,1.7699,41.46,39.354,26.8746,26.8719,-9.990e-29,-9.990e-29,3.5986e+00,9.9990e+03,,,,,,,
CalCOFI,0701JD,074,728,30-Jan-2007 7:04:06 AM,29-Jan-2007 11:04:06 PM,33.38350,-124.32218,076.7 100.0,076.7,100.0,463.000,466.829,5.4976,5.4989,34.0569,34.0556,34.0534,34.0535,1.04188,1.24,1.24,0.0237,,,1.7581,41.12,38.997,26.8738,26.8709,-9.990e-29,-9.990e-29,3.8356e+00,9.9990e+03,,,,,,,
CalCOFI,0701JD,074,728,30-Jan-2007 7:04:07 AM,29-Jan-2007 11:04:07 PM,33.38350,-124.32218,076.7 100.0,076.7,100.0,462.000,465.820,5.5007,5.5021,34.0559,34.0546,34.0523,34.0524,1.05400,1.25,1.25,0.0240,,,1.7516,40.93,38.801,26.8727,26.8696,-9.990e-29,-9.990e-29,3.9060e+00,9.9990e+03,,,,,,,
CalCOFI,0701JD,074,728,30-Jan-2007 7:04:08 AM,29-Jan-2007 11:04:08 PM,33.38350,-124.32218,076.7 100.0,076.7,100.0,461.000,464.810,5.5041,5.5052,34.0547,34.0534,34.0513,34.0514,1.06420,1.26,1.26,0.0240,,,1.7646,41.31,39.194,26.8713,26.8685,-9.990e-29,-9.990e-29,3.4422e+00,9.9990e+03,,,,,,,
CalCOFI,0701JD,074,728,30-Jan-2007 7:04:09 AM,29-Jan-2007 11:04:09 PM,33.38350,-124.32218,076.7 100.0,076.7,100.0,460.000,463.801,5.5060,5.5070,34.0541,34.0528,34.0508,34.0509,1.07564,1.28,1.28,0.0235,,,1.7627,41.25,39.136,26.8705,26.8678,-9.990e-29,-9.990e-29,4.4564e+00,9.9990e+03,,,,,,,
CalCOFI,0701JD,074,728,30-Jan-2007 7:04:10 AM,29-Jan-2007 11:04:10 PM,33.38350,-124.32218,076.7 100.0,076.7,100.0,459.000,462.792,5.5125,5.5133,34.0526,34.0513,34.0493,34.0494,1.08802,1.29,1.29,0.0242,,,1.7618,41.23,39.109,26.8686,26.8659,-9.990e-29,-9.990e-29,3.5405e+00,9.9990e+03,,,,,,,
CalCOFI,0701JD,074,728,30-Jan-2007 7:04:11 AM,29-Jan-2007 11:04:11 PM,33.38350,-124.32218,076.7 100.0,076.7,100.0,458.000,461.782,5.5452,5.5458,34.0515,34.0502,34.0472,34.0473,1.09895,1.31,1.31,0.0241,,,1.7421,40.65,38.514,26.8638,26.8604,-9.990e-29,-9.990e-29,3.9012e+00,9.9990e+03,,,,,,,
CalCOFI,0701JD,074,728,30-Jan-2007 7:04:12 AM,29-Jan-2007 11:04:12 PM,33.38350,-124.32218,076.7 100.0,076.7,100.0,457.000,460.773,5.5599,5.5614,34.0494,34.0481,34.0461,34.0462,1.10701,1.32,1.32,0.0244,,,1.7229,40.08,37.934,26.8604,26.8576,-9.990e-29,-9.990e-29,3.8398e+00,9.9990e+03,,,,,,,
CalCOFI,0701JD,074,728,30-Jan-2007 7:04:14 AM,29-Jan-2007 11:04:14 PM,33.38350,-124.32218,076.7 100.0,076.7,100.0,456.000,459.763,5.5757,5.5757,34.0509,34.0496,34.0467,34.0468,1.11200,1.32,1.32,0.0237,,,1.7333,40.39,38.248,26.8597,26.8563,-9.990e-29,-9.990e-29,3.0754e+00,9.9990e+03,,,,,,,
CalCOFI,0701JD,074,728,30-Jan-2007 7:04:14 AM,29-Jan-2007 11:04:14 PM,33.38350,-124.32218,076.7 100.0,076.7,100.0,455.000,458.754,5.6027,5.6041,34.0527,34.0514,34.0491,34.0492,1.11451,1.32,1.33,0.0233,,,1.7426,40.66,38.529,26.8578,26.8548,-9.990e-29,-9.990e-29,3.5575e+00,9.9990e+03,,,,,,,
CalCOFI,0701JD,074,728,30-Jan-2007 7:04:15 AM,29-Jan-2007 11:04:15 PM,33.38350,-124.32218,076.7 100.0,076.7,100.0,454.000,457.745,5.6137,5.6152,34.0531,34.0518,34.0498,34.0499,1.11588,1.33,1.33,0.0236,,,1.7398,40.58,38.444,26.8568,26.8540,-9.990e-29,-9.990e-29,3.9331e+00,9.9990e+03,,,,,,,
CalCOFI,0701JD,074,728,30-Jan-2007 7:04:16 AM,29-Jan-2007 11:04:16 PM,33.38350,-124.32218,076.7 100.0,076.7,100.0,453.000,456.735,5.6219,5.6230,34.0540,34.0527,34.0506,34.0507,1.11831,1.33,1.33,0.0239,,,1.7639,41.29,39.173,26.8565,26.8537,-9.990e-29,-9.990e-29,3.4570e+00,9.9990e+03,,,,,,,
CalCOFI,0701JD,074,728,30-Jan-2007 7:04:17 AM,29-Jan-2007 11:04:17 PM,33.38350,-124.32218,076.7 100.0,076.7,100.0,452.000,455.726,5.6310,5.6330,34.0541,34.0528,34.0510,34.0511,1.11826,1.33,1.33,0.0241,,,1.7389,40.55,38.417,26.8555,26.8528,-9.990e-29,-9.990e-29,3.4027e+00,9.9990e+03,,,,,,,
CalCOFI,0701JD,074,728,30-Jan-2007 7:04:18 AM,29-Jan-2007 11:04:18 PM,33.38350,-124.32218,076.7 100.0,076.7,100.0,451.000,454.717,5.6412,5.6441,34.0550,34.0537,34.0518,34.0519,1.11921,1.33,1.33,0.0239,,,1.7233,40.10,37.946,26.8550,26.8520,-9.990e-29,-9.990e-29,3.8387e+00,9.9990e+03,,,,,,,
CalCOFI,0701JD,074,728,30-Jan-2007 7:04:19 AM,29-Jan-2007 11:04:19 PM,33.38350,-124.32218,076.7 100.0,076.7,100.0,450.000,453.707,5.6622,5.6643,34.0567,34.0554,34.0534,34.0535,1.11990,1.33,1.33,0.0239,,,1.7254,40.16,38.009,26.8538,26.8509,-9.990e-29,-9.990e-29,3.9838e+00,9.9990e+03,,,,,,,
CalCOFI,0701JD,074,728,30-Jan-2007 7:04:20 AM,29-Jan-2007 11:04:20 PM,33.38350,-124.32218,076.7 100.0,076.7,100.0,449.000,452.698,5.6760,5.6780,34.0569,34.0556,34.0535,34.0536,1.11985,1.33,1.33,0.0239,,,1.7136,39.81,37.653,26.8523,26.8493,-9.990e-29,-9.990e-29,3.4210e+00,9.9990e+03,,,,,,,
CalCOFI,0701JD,074,728,30-Jan-2007 7:04:21 AM,29-Jan-2007 11:04:21 PM,33.38350,-124.32218,076.7 100.0,076.7,100.0,448.000,451.689,5.7137,5.7197,34.0590,34.0577,34.0554,34.0555,1.12410,1.34,1.34,0.0246,,,1.7074,39.63,37.465,26.8493,26.8457,-9.990e-29,-9.990e-29,3.7053e+00,9.9990e+03,,,,,,,
CalCOFI,0701JD,074,728,30-Jan-2007 7:04:22 AM,29-Jan-2007 11:04:22 PM,33.38350,-124.32218,076.7 100.0,076.7,100.0,447.000,450.679,5.7269,5.7277,34.0567,34.0554,34.0539,34.0540,1.13065,1.34,1.35,0.0236,,,1.7093,39.68,37.523,26.8459,26.8435,-9.990e-29,-9.990e-29,3.9437e+00,9.9990e+03,,,,,,,
CalCOFI,0701JD,074,728,30-Jan-2007 7:04:23 AM,29-Jan-2007 11:04:23 PM,33.38350,-124.32218,076.7 100.0,076.7,100.0,446.000,449.670,5.7400,5.7421,34.0560,34.0547,34.0526,34.0527,1.13830,1.35,1.35,0.0243,,,1.7364,40.48,38.342,26.8437,26.8407,-9.990e-29,-9.990e-29,3.6345e+00,9.9990e+03,,,,,,,
CalCOFI,0701JD,074,728,30-Jan-2007 7:04:24 AM,29-Jan-2007 11:04:24 PM,33.38350,-124.32218,076.7 100.0,076.7,100.0,445.000,448.661,5.7550,5.7579,34.0552,34.0539,34.0518,34.0519,1.14771,1.36,1.37,0.0237,,,1.7483,40.83,38.701,26.8412,26.8382,0.3957,90.5822,4.0378e+00,9.9990e+03,,,,,,,
CalCOFI,0701JD,074,728,30-Jan-2007 7:04:25 AM,29-Jan-2007 11:04:25 PM,33.38350,-124.32218,076.7 100.0,076.7,100.0,444.000,447.651,5.7896,5.7926,34.0524,34.0511,34.0483,34.0484,1.15571,1.37,1.38,0.0238,,,1.7504,40.89,38.765,26.8347,26.8311,0.3950,90.5973,4.0228e+00,9.9990e+03,,,,,,,
CalCOFI,0701JD,074,728,30-Jan-2007 7:04:26 AM,29-Jan-2007 11:04:26 PM,33.38350,-124.32218,076.7 100.0,076.7,100.0,443.000,446.642,5.8038,5.8064,34.0506,34.0493,34.0473,34.0474,1.16533,1.39,1.39,0.0241,,,1.7445,40.72,38.586,26.8316,26.8287,0.3952,90.5933,3.6707e+00,9.9990e+03,,,,,,,
CalCOFI,0701JD,074,728,30-Jan-2007 7:04:27 AM,29-Jan-2007 11:04:27 PM,33.38350,-124.32218,076.7 100.0,076.7,100.0,442.000,445.633,5.8218,5.8237,34.0494,34.0481,34.0464,34.0465,1.17514,1.40,1.40,0.0243,,,1.7288,40.26,38.112,26.8284,26.8258,0.3952,90.5939,4.2223e+00,9.9990e+03,,,,,,,
CalCOFI,0701JD,074,728,30-Jan-2007 7:04:28 AM,29-Jan-2007 11:04:28 PM,33.38350,-124.32218,076.7 100.0,076.7,100.0,441.000,444.623,5.8227,5.8236,34.0476,34.0463,34.0449,34.0450,1.18587,1.41,1.41,0.0241,,,1.7149,39.85,37.692,26.8268,26.8246,0.3952,90.5922,3.9187e+00,9.9990e+03,,,,,,,
CalCOFI,0701JD,074,728,30-Jan-2007 7:04:29 AM,29-Jan-2007 11:04:29 PM,33.38350,-124.32218,076.7 100.0,076.7,100.0,440.000,443.614,5.8229,5.8239,34.0464,34.0451,34.0437,34.0438,1.19483,1.42,1.42,0.0235,,,1.7022,39.48,37.308,26.8258,26.8236,0.3959,90.5778,3.9669e+00,9.9990e+03,,,,,,,
CalCOFI,0701JD,074,728,30-Jan-2007 7:04:31 AM,29-Jan-2007 11:04:31 PM,33.38350,-124.32218,076.7 100.0,076.7,100.0,439.000,442.605,5.8274,5.8289,34.0446,34.0433,34.0419,34.0420,1.20488,1.43,1.44,0.0239,,,1.7103,39.71,37.553,26.8239,26.8215,0.3953,90.5903,4.0056e+00,9.9990e+03,,,,,,,
CalCOFI,0701JD,074,728,30-Jan-2007 7:04:33 AM,29-Jan-2007 11:04:33 PM,33.38350,-124.32218,076.7 100.0,076.7,100.0,438.000,441.595,5.8319,5.8343,34.0442,34.0429,34.0413,34.0414,1.22065,1.45,1.46,0.0240,,,1.7184,39.95,37.798,26.8230,26.8205,0.3952,90.5934,3.8871e+00,9.9990e+03,,,,,,,
CalCOFI,0701JD,074,728,30-Jan-2007 7:04:34 AM,29-Jan-2007 11:04:34 PM,33.38350,-124.32218,076.7 100.0,076.7,100.0,437.000,440.586,5.8705,5.8748,34.0431,34.0418,34.0397,34.0398,1.23085,1.47,1.47,0.0239,,,1.7085,39.66,37.498,26.8174,26.8142,0.3951,90.5950,3.8039e+00,9.9990e+03,437,5.92 ,34.038, 1.50,,,37.6
CalCOFI,0701JD,074,728,30-Jan-2007 7:04:40 AM,29-Jan-2007 11:04:40 PM,33.38350,-124.32218,076.7 100.0,076.7,100.0,436.000,439.577,5.8952,5.9037,34.0419,34.0406,34.0394,34.0395,1.24348,1.48,1.48,0.0238,,,1.7002,39.42,37.248,26.8133,26.8103,0.3950,90.5968,3.7355e+00,9.9990e+03,,,,,,,
CalCOFI,0701JD,074,728,30-Jan-2007 7:06:09 AM,29-Jan-2007 11:06:09 PM,33.38332,-124.32218,076.7 100.0,076.7,100.0,435.000,438.568,5.9331,5.9430,34.0388,34.0375,34.0353,34.0354,1.30308,1.55,1.56,0.0241,,,1.7200,40.00,37.846,26.8062,26.8022,0.3958,90.5802,3.5634e+00,9.9990e+03,,,,,,,
CalCOFI,0701JD,074,728,30-Jan-2007 7:06:09 AM,29-Jan-2007 11:06:09 PM,33.38332,-124.32218,076.7 100.0,076.7,100.0,434.000,437.558,5.9779,5.9808,34.0367,34.0354,34.0340,34.0341,1.30931,1.56,1.57,0.0237,,,1.7173,39.92,37.764,26.7990,26.7964,0.3960,90.5751,4.0143e+00,9.9990e+03,,,,,,,
CalCOFI,0701JD,074,728,30-Jan-2007 7:06:10 AM,29-Jan-2007 11:06:10 PM,33.38332,-124.32218,076.7 100.0,076.7,100.0,433.000,436.549,5.9829,5.9838,34.0361,34.0348,34.0343,34.0344,1.31331,1.57,1.57,0.0236,,,1.7168,39.90,37.749,26.7978,26.7963,0.3958,90.5794,3.6746e+00,9.9990e+03,,,,,,,
CalCOFI,0701JD,074,728,30-Jan-2007 7:06:11 AM,29-Jan-2007 11:06:11 PM,33.38332,-124.32218,076.7 100.0,076.7,100.0,432.000,435.540,5.9854,5.9866,34.0360,34.0347,34.0341,34.0342,1.32038,1.58,1.58,0.0242,,,1.6883,39.07,36.888,26.7974,26.7958,0.3995,90.4967,3.5440e+00,9.9990e+03,,,,,,,
CalCOFI,0701JD,074,728,30-Jan-2007 7:06:12 AM,29-Jan-2007 11:06:12 PM,33.38332,-124.32218,076.7 100.0,076.7,100.0,431.000,434.531,5.9947,5.9955,34.0356,34.0343,34.0335,34.0336,1.32681,1.58,1.59,0.0236,,,1.6983,39.36,37.190,26.7959,26.7941,0.3967,90.5596,3.7260e+00,9.9990e+03,,,,,,,
CalCOFI,0701JD,074,728,30-Jan-2007 7:06:13 AM,29-Jan-2007 11:06:13 PM,33.38332,-124.32218,076.7 100.0,076.7,100.0,430.000,433.521,6.0029,6.0033,34.0355,34.0342,34.0333,34.0334,1.32482,1.58,1.58,0.0237,,,1.7220,40.06,37.906,26.7948,26.7931,0.3961,90.5732,3.7600e+00,9.9990e+03,,,,,,,
CalCOFI,0701JD,074,728,30-Jan-2007 7:06:14 AM,29-Jan-2007 11:06:14 PM,33.38332,-124.32218,076.7 100.0,076.7,100.0,429.000,432.512,6.0423,6.0477,34.0412,34.0399,34.0362,34.0363,1.31603,1.57,1.57,0.0237,,,1.7169,39.91,37.752,26.7944,26.7897,0.3965,90.5640,4.0315e+00,9.9990e+03,,,,,,,